Zapata, TX

12:58 AM CDT on August 26, 2016 (GMT -0500)
Zapata

Weather History for KAPY - November, 2012

Change the Weather History Date:

Thursday, November 15, 2012

  Actual Average (KLRD) Record (KLRD)
Temperature  
Mean Temperature 62 °F 66 °F  
Max Temperature 66 °F 76 °F 94 °F (1938)
Min Temperature 58 °F 55 °F 24 °F (1908)
Degree Days  
Heating Degree Days 3 3  
Month to date heating degree days 31  
Since 1 July heating degree days 43  
Cooling Degree Days 0 4  
Month to date cooling degree days 84  
Year to date cooling degree days 4213  
Growing Degree Days 12 (Base 50)    
Moisture  
Dew Point 44 °F    
Average Humidity 51    
Maximum Humidity 72    
Minimum Humidity 34    
Precipitation  
Precipitation 0.00 in 0.04 in 1.00 in (1923)
Month to date precipitation 0.66  
Year to date precipitation 18.79  
Sea Level Pressure  
Sea Level Pressure 30.22 in    
Wind  
Wind Speed 1 mph (ENE)    
Max Wind Speed 7 mph    
Max Gust Speed -    
Visibility 10 miles    
Events      
T = Trace of Precipitation, MM = Missing Value Source: NWS Daily Summary

Daily Weather History Graph

Daily Weather History Graph

Search for Another Location

Airport or City:

Trip Planner

Search our weather history database for the weather conditions in past years. The results will help you decide how hot, cold, wet, or windy it might be!

Date:

Astronomy

Nov. 15, 2012 Rise Set
Actual Time 6:57 AM CST 5:45 PM CST
Civil Twilight 6:32 AM CST 6:10 PM CST
Nautical Twilight 6:04 AM CST 6:38 PM CST
Astronomical Twilight 5:36 AM CST 7:06 PM CST
Moon 8:48 AM CST (11/15) 7:44 PM CST (11/15)
Length of Visible Light 11h 37m
Length of Day
10h 48m
Waxing Crescent, 5% of the Moon is Illuminated
Nov 15
Waxing Crescent
Nov 20
First Quarter
Nov 28
Full
Dec 6
Last Quarter
Dec 13
New

Hourly Weather History & Observations

Time (CST) Temp. Dew Point Humidity Pressure Visibility Wind Dir Wind Speed Gust Speed Precip Events Conditions
12:15 AM 59.4 °F 39.4 °F 48% 30.27 in 10.0 mi Calm Calm - N/A   Overcast
12:35 AM 59.4 °F 39.4 °F 48% 30.26 in 10.0 mi Calm Calm - N/A   Overcast
12:55 AM 59.2 °F 40.3 °F 50% 30.25 in 10.0 mi Calm Calm - N/A   Overcast
1:15 AM 59.2 °F 40.3 °F 50% 30.24 in 10.0 mi Calm Calm - N/A   Overcast
1:35 AM 59.0 °F 40.8 °F 51% 30.25 in 10.0 mi Calm Calm - N/A   Overcast
1:55 AM 59.0 °F 40.3 °F 50% 30.24 in 10.0 mi Calm Calm - N/A   Overcast
2:15 AM 59.0 °F 40.3 °F 50% 30.24 in 10.0 mi Calm Calm - N/A   Overcast
2:35 AM 59.0 °F 40.5 °F 50% 30.23 in 10.0 mi Calm Calm - N/A   Overcast
2:55 AM 59.0 °F 40.5 °F 50% 30.23 in 10.0 mi Calm Calm - N/A   Overcast
3:15 AM 58.8 °F 41.0 °F 52% 30.22 in 10.0 mi Calm Calm - N/A   Overcast
3:35 AM 59.0 °F 40.8 °F 51% 30.22 in 10.0 mi Calm Calm - N/A   Overcast
3:55 AM 59.2 °F 40.3 °F 50% 30.22 in 10.0 mi Calm Calm - N/A   Overcast
4:15 AM 59.2 °F 40.3 °F 50% 30.21 in 10.0 mi Calm Calm - N/A   Overcast
4:35 AM 59.0 °F 40.5 °F 50% 30.21 in 10.0 mi Calm Calm - N/A   Overcast
4:55 AM 59.2 °F 40.5 °F 50% 30.21 in 10.0 mi Calm Calm - N/A   Overcast
5:15 AM 59.0 °F 40.3 °F 50% 30.21 in 10.0 mi Calm Calm - N/A   Overcast
5:35 AM 59.2 °F 40.1 °F 49% 30.22 in 10.0 mi Calm Calm - N/A   Overcast
5:55 AM 59.4 °F 40.3 °F 49% 30.22 in 10.0 mi Calm Calm - N/A   Overcast
6:15 AM 59.4 °F 39.4 °F 48% 30.22 in 10.0 mi Calm Calm - N/A   Overcast
6:35 AM 59.4 °F 39.4 °F 48% 30.22 in 10.0 mi Calm Calm - N/A   Overcast
6:55 AM 59.0 °F 41.0 °F 51% 30.23 in 10.0 mi Calm Calm - N/A   Overcast
7:15 AM 59.4 °F 40.5 °F 50% 30.23 in 10.0 mi NNW 3.5 mph - N/A   Overcast
7:35 AM 59.4 °F 40.3 °F 49% 30.24 in 10.0 mi Calm Calm - N/A   Overcast
8:15 AM 60.4 °F 35.6 °F 40% 30.24 in 10.0 mi Calm Calm - N/A   Overcast
8:35 AM 61.2 °F 34.7 °F 37% 30.25 in 10.0 mi Calm Calm - N/A   Overcast
9:55 AM 61.9 °F 35.2 °F 37% 30.26 in 10.0 mi North 3.5 mph - N/A   Overcast
10:15 AM 62.1 °F 35.1 °F 37% 30.27 in 10.0 mi NNE 3.5 mph - N/A   Overcast
10:35 AM 62.6 °F 34.9 °F 36% 30.27 in 10.0 mi Calm Calm - N/A   Overcast
10:55 AM 62.6 °F 34.7 °F 35% 30.26 in 10.0 mi NNE 3.5 mph - N/A   Overcast
11:15 AM 63.0 °F 34.9 °F 35% 30.25 in 10.0 mi ENE 3.5 mph - N/A   Overcast
11:35 AM 63.3 °F 34.5 °F 34% 30.24 in 10.0 mi NE 3.5 mph - N/A   Overcast
11:55 AM 63.7 °F 35.6 °F 35% 30.24 in 10.0 mi Calm Calm - N/A   Overcast
12:15 PM 63.9 °F 36.0 °F 36% 30.23 in 10.0 mi Calm Calm - N/A   Overcast
12:35 PM 64.4 °F 38.1 °F 38% 30.22 in 10.0 mi ENE 3.5 mph - N/A   Overcast
12:55 PM 64.9 °F 38.3 °F 37% 30.21 in 10.0 mi Calm Calm - N/A   Overcast
1:15 PM 65.3 °F 40.5 °F 40% 30.20 in 10.0 mi East 3.5 mph - N/A   Overcast
1:35 PM 65.3 °F 43.5 °F 45% 30.19 in 10.0 mi Calm Calm - N/A   Overcast
1:55 PM 65.7 °F 43.9 °F 45% 30.18 in 10.0 mi ESE 4.6 mph - N/A   Overcast
2:15 PM 65.8 °F 45.3 °F 47% 30.18 in 10.0 mi East 4.6 mph - N/A   Overcast
2:35 PM 65.7 °F 44.8 °F 47% 30.17 in 10.0 mi ENE 4.6 mph - N/A   Overcast
2:55 PM 65.8 °F 46.4 °F 49% 30.17 in 10.0 mi East 4.6 mph - N/A   Overcast
3:15 PM 65.7 °F 47.5 °F 52% 30.16 in 10.0 mi East 5.8 mph - N/A   Overcast
3:35 PM 65.8 °F 48.2 °F 53% 30.16 in 10.0 mi East 4.6 mph - N/A   Overcast
3:55 PM 65.8 °F 49.5 °F 55% 30.16 in 10.0 mi ESE 3.5 mph - N/A   Overcast
4:35 PM 66.2 °F 50.7 °F 57% 30.17 in 10.0 mi East 6.9 mph - N/A   Overcast
4:55 PM 66.2 °F 50.2 °F 56% 30.17 in 10.0 mi East 5.8 mph - N/A   Overcast
5:15 PM 65.8 °F 50.4 °F 57% 30.17 in 10.0 mi East 5.8 mph - N/A   Overcast
5:35 PM 65.7 °F 50.7 °F 58% 30.18 in 10.0 mi ESE 4.6 mph - N/A   Overcast
5:55 PM 65.5 °F 50.0 °F 57% 30.19 in 10.0 mi East 5.8 mph - N/A   Overcast
6:15 PM 65.3 °F 50.4 °F 58% 30.19 in 10.0 mi East 4.6 mph - N/A   Overcast
6:35 PM 65.3 °F 50.0 °F 58% 30.20 in 10.0 mi East 4.6 mph - N/A   Overcast
6:55 PM 65.3 °F 50.5 °F 59% 30.21 in 10.0 mi ENE 4.6 mph - N/A   Overcast
7:35 PM 64.9 °F 51.4 °F 62% 30.23 in 10.0 mi East 3.5 mph - N/A   Overcast
7:55 PM 64.9 °F 51.4 °F 62% 30.23 in 10.0 mi Calm Calm - N/A   Overcast
8:15 PM 64.9 °F 51.8 °F 62% 30.23 in 10.0 mi Calm Calm - N/A   Overcast
8:35 PM 64.8 °F 51.4 °F 62% 30.24 in 10.0 mi Calm Calm - N/A   Overcast
8:55 PM 64.8 °F 51.8 °F 63% 30.24 in 10.0 mi Calm Calm - N/A   Overcast
9:15 PM 64.4 °F 52.0 °F 64% 30.24 in 10.0 mi ENE 3.5 mph - N/A   Overcast
9:35 PM 64.2 °F 52.3 °F 65% 30.24 in 10.0 mi ENE 6.9 mph - N/A   Overcast
9:55 PM 64.4 °F 51.6 °F 63% 30.24 in 10.0 mi Calm Calm - N/A   Overcast
10:15 PM 63.9 °F 54.0 °F 70% 30.23 in 10.0 mi ENE 4.6 mph - N/A   Overcast
10:35 PM 64.0 °F 52.9 °F 67% 30.23 in 10.0 mi ENE 3.5 mph - N/A   Overcast
10:55 PM 63.9 °F 53.6 °F 69% 30.23 in 10.0 mi Calm Calm - N/A   Overcast
11:15 PM 63.9 °F 53.8 °F 70% 30.23 in 10.0 mi ENE 3.5 mph - N/A   Overcast
11:35 PM 63.5 °F 54.1 °F 72% 30.23 in 10.0 mi Calm Calm - N/A   Light Drizzle
11:55 PM 63.7 °F 54.5 °F 72% 30.23 in 10.0 mi Calm Calm - N/A   Overcast